sat.trackr.live / text

‹ back to catalog

NINGXIA-1 4

NORAD 44782 · 2019-076D

PAYLOAD ACTIVE UNKNOWN

§ Identity

Operator
Country
PRC
Launch date
2019-11-13
Launch site
TAISC
Launch vehicle
Mass (kg)
RCS (m²)

External: N2YO · Heavens-Above · Gunter

§ Orbital elements

Epoch: 2026-05-25T04:36:26.102592Z

Period
102.71 min
Inclination
45.0089°
Eccentricity
0.0012432
Mean motion
14.02066875 rev/d
Perigee alt
877.6 km
Apogee alt
895.7 km
Semi-major
7,264.8 km
B*
-2.9246e-5
RAAN
282.5903°
Arg perigee
13.1616°
Mean anomaly
346.9540°
Rev number
33,459

§ Raw data

NINGXIA-1 41 44782U 19076D   26145.19196878 -.00000175  00000+0 -29246-4 0  99962 44782  45.0089 282.5903 0012432  13.1616 346.9540 14.02066875334596

JSON: /api/v1/satellites/44782 · /tle

For live sub-satellite position, see the globe view (requires WebGL).

§ Visibility from observer

Set your observer location to see the next 7 days of passes ≥ 10°. The values pass through the URL so the page stays shareable.

No JS? Fill the form by hand. The geolocation button needs JavaScript.